{"data":{"norad_id":59201,"epoch":"2026-09-20T12:41:46.737888Z","epoch_age_seconds":156262,"freshness":"FRESH","line1":"1 59201U 24046A   26263.52901317 -.00001804  00000+0 -42318-4 0  9996","line2":"2 59201  53.1601 329.3938 0000675  65.2252 294.8821 15.34376956142899","mean_motion":15.34376956,"eccentricity":6.75e-5,"inclination_deg":53.1601,"raan_deg":329.3938,"arg_perigee_deg":65.2252,"mean_anomaly_deg":294.8821,"bstar":-4.2318e-5,"rev_number":14289,"period_min":93.849167531424,"perigee_km":462.30997134915,"apogee_km":463.23349402806,"semimajor_km":6840.9087326886,"source":"CELESTRAK","updated_at":"2026-09-21T09:00:34.067352Z"}}